Terminal Aerodrome Forecast
Issued by NWS

Home | Current Version | Previous Version | Text Only | Print | Product List | Glossary On
Versions: 1 2 3 4 5 6 7 8 9 10 11 12 13 14 15 16 17 18
000
FTUS44 KTSA 300300 AAA
TAFMLC
TAF AMD
KMLC 300308Z 3003/3024 VRB03KT P6SM BKN010
     FM301100 35006KT P6SM BKN025
      TEMPO 3011/3014 4SM BR BKN015
     FM301800 35011KT P6SM OVC025=

USA.gov is the U.S. government's official web portal to all federal, state and local government web resources and services.